TimePST,TemperatureF,Dew PointF,Humidity,Sea Level PressureIn,VisibilityMPH,Wind Direction,Wind SpeedMPH,Gust SpeedMPH,PrecipitationIn,Events,Conditions,WindDirDegrees,DateUTC
12:53 AM,42.1,39.0,89,30.35,6.0,Calm,Calm,-,N/A,,Clear,0,2013-12-24 08:53:00
1:53 AM,44.1,39.9,85,30.34,7.0,Calm,Calm,-,N/A,,Clear,0,2013-12-24 09:53:00
2:53 AM,43.0,39.0,86,30.34,6.0,Calm,Calm,-,N/A,,Clear,0,2013-12-24 10:53:00
3:53 AM,42.1,39.0,89,30.34,7.0,Calm,Calm,-,N/A,,Clear,0,2013-12-24 11:53:00
4:53 AM,45.0,37.9,76,30.32,7.0,SE,3.5,-,N/A,,Clear,140,2013-12-24 12:53:00
5:53 AM,39.9,36.0,86,30.31,7.0,NE,3.5,-,N/A,,Clear,50,2013-12-24 13:53:00
6:53 AM,39.0,34.0,82,30.31,8.0,NE,3.5,-,N/A,,Partly Cloudy,40,2013-12-24 14:53:00
7:53 AM,42.1,36.0,79,30.31,7.0,Calm,Calm,-,N/A,,Scattered Clouds,0,2013-12-24 15:53:00
8:53 AM,50.0,39.0,66,30.32,9.0,Calm,Calm,-,N/A,,Partly Cloudy,0,2013-12-24 16:53:00
9:53 AM,51.1,43.0,74,30.33,6.0,Calm,Calm,-,N/A,,Haze,0,2013-12-24 17:53:00
10:53 AM,52.0,44.1,74,30.31,6.0,Calm,Calm,-,N/A,,Haze,0,2013-12-24 18:53:00
11:53 AM,54.0,41.0,62,30.28,6.0,Calm,Calm,-,N/A,,Haze,0,2013-12-24 19:53:00
12:53 PM,55.9,44.1,64,30.25,6.0,West,4.6,-,N/A,,Haze,280,2013-12-24 20:53:00
1:53 PM,59.0,39.0,48,30.23,10.0,WNW,6.9,-,N/A,,Partly Cloudy,300,2013-12-24 21:53:00
2:53 PM,64.9,37.9,37,30.22,10.0,NW,4.6,-,N/A,,Partly Cloudy,320,2013-12-24 22:53:00
3:53 PM,64.0,39.9,41,30.23,10.0,WNW,8.1,-,N/A,,Partly Cloudy,300,2013-12-24 23:53:00
4:53 PM,59.0,39.9,49,30.22,10.0,NNW,4.6,-,N/A,,Partly Cloudy,330,2013-12-25 00:53:00
5:53 PM,59.0,39.0,48,30.21,10.0,NNW,8.1,-,N/A,,Partly Cloudy,340,2013-12-25 01:53:00
6:53 PM,51.1,39.0,63,30.22,10.0,NE,6.9,-,N/A,,Partly Cloudy,40,2013-12-25 02:53:00
7:53 PM,53.1,41.0,64,30.22,10.0,Calm,Calm,-,N/A,,Clear,0,2013-12-25 03:53:00
8:53 PM,51.1,39.0,63,30.23,10.0,Calm,Calm,-,N/A,,Clear,0,2013-12-25 04:53:00
9:53 PM,48.9,42.1,77,30.25,9.0,NW,3.5,-,N/A,,Clear,310,2013-12-25 05:53:00
10:53 PM,43.0,37.9,82,30.26,9.0,ENE,5.8,-,N/A,,Clear,60,2013-12-25 06:53:00
11:53 PM,43.0,37.0,80,30.25,9.0,NE,4.6,-,N/A,,Clear,50,2013-12-25 07:53:00